Погода Павловский Посад

Погода Павловский Посад : погода сейчас, прогноз погоды и архив. Всё, что Вы хотите узнать о погоде Павловский Посад!

Хотите узнать прогноз погоды Павловский Посад? Тогда Вам сюда: Погода Павловский Посад

Поиск расширенной информации на нашем сайте:

Другие новости

Новости СМИ2

Главная страница сайта

Новости сайта

03.07.2017

Напоминаем, что на нашем специализированном сайте Метеоцентр.Азия вы можете получить высокодетализированные автоматические прогнозы погоды по пунктам России, СНГ и мира в авиационном формате (включающие направление и скорость ветра, видимость, явления погоды, количество и форму облачности, нижнюю и верхнюю границу облачности).

Рекомендуем: программа для просмотра youtube

Погода Павловский Посад - сегодня

Время (UTC), дата Ветер
(°,м/с) 
Видим.   Явления Облачность Т
(°С)
Тd
(°С)
f(%) Тe
(°С)
Pmin
(гПа)
dP
(гПа)
Po
(мм)
O2
(г/м3)
Тmin Tmax R s Состояние
почвы
03 07.02.18 130 (ЮВ) 10 км    ясно 
-17 -18.8 86 -17  1031  0.2  760  328  -18.4         
06 07.02.18 120 (ЮВ) 10 км    8/0 верхняя 
[Ci]
-15.8 -17.6 86 -16  1032.1  1.1  760  327  -18.4      42  равномерный
сухой снег
100% 
09 07.02.18 160 (Ю) 10 км    8/5 600 м верхняя 
[Sc|Ci]
-9.5 -12.4 79 -12  1032.6  761  319           
12 07.02.18 160 (Ю) 10 км    9/0 верхняя 
[Ci]
-7.6 -10.6 79 -10  1032.9  0.3  761  317           
15 07.02.18 160 (Ю) 10 км    8/0 верхняя 
[Ci]
-9 -11.2 84 -12  1034.2  1.2  762  319           
18 07.02.18 140 (ЮВ) 10 км    8/0 верхняя 
[Ci]
-12.5 -14 89 -12  1035.5  1.1  763  324    -7.5       
21 07.02.18 130 (ЮВ) 10 км    9/0 верхняя 
[Ci]
-13.4 -14.7 90 -13  1035.6  0.1  763  325           
00 08.02.18 120 (ЮВ) 10 км    ясно 
-15.3 -16.5 91 -15  1036  0.2  763  327           
03 08.02.18 080 (В) 10 км    ясно 
-18.3 -19.8 88 -19  1036.1  0.1  763  331  -18.3         
06 08.02.18 140 (ЮВ) 10 км    3/0 верхняя 
[Ci sp]
-16.9 -18.8 85 -17  1035.7  -0.3  763  329  -19.2      42  равномерный
сухой снег
100% 
09 08.02.18 110 (В) 10 км    10/0 верхняя 
[Cs]
-11.3 -13 87 -11  1034.8  -0.5  763  322           
12 08.02.18 100 (В) 10 км    9/0 средняя, верхняя 
[Ac trans|Ci]
-7.2 -9.1 86 -7  1033.4  -1.2  762  316           
15 08.02.18 110 (В) 10 км    10/0 средняя 
[Ac und]
-6.8 -8.2 90 -6  1033.1  -0.3  762  316           
18 08.02.18 090 (В) 10 км    10/0 средняя 
[Ac und]
-7.1 -8.4 90 -7  1032  -1.3  761  316    +7.1       
21 08.02.18 080 (В) 10 км    10/0 средняя 
[Ac und]
-6.2 -7.4 91 -8  1030.5  -1.2  760  314           
00 09.02.18 100 (В) 10 км    10/10 600 м 
[Sc]
-5 -6.4 90 -7  1029.4  -1.2  759  312           
03 09.02.18 110 (В) 10 км    10/10 600 м 
[Sc]
-5.8 -7.4 88 -8  1028.5  -0.9  758  313  -7.2         
06 09.02.18 110 (В) 10 км    10/10 600 м 
[Sc]
-7.7 -9.7 86 -10  1029  0.3  759  316  -7.7      41  равномерный
сухой снег
100% 
09 09.02.18 090 (В) 10 км    10/10 600 м 
[Sc]
-7.2 -9.6 83 -9  1028.3  -0.6  758  315           
12 09.02.18 080 (В) 10 км    9/8 600 м верхняя 
[Sc|Ci fib]
-5.4 -7.7 84 -7  1027.1  -1  757  312           
15 09.02.18 080 (В) 10 км    10/0 средняя 
[Ac und]
-5.6 -7 90 -7  1026.6  -0.6  757  312           
18 09.02.18 080 (В) 10 км    ясно 
-6.5 -8.9 83 -8  1026.3  -0.3  757  313    -5.1       
09 22.02.18 350 (С) 10 км    6/6 600 м 
[Sc]
-10 -14.4 70 -13  1027.4  0.5  757  318           
12 26.03.18 200 (Ю) 10 км    10/0 средняя 
[Ac und]
+5.1 -4.4 50 +4  1006.1  -0.5  742  294           
03 07.04.18 200 (Ю) 10 км    ясно 
+1.7 -3 71 +1  1012.2  747  299  +1.6         
Время (UTC), дата Ветер
(°,м/с) 
Видим.   Явления Облачность Т
(°С)
Тd
(°С)
f(%) Тe
(°С)
Pmin
(гПа)
dP
(гПа)
Po
(мм)
O2
(г/м3)
Тmin Tmax R s Состояние
почвы

Для получения пояснительной информации подведите курсор к названию столбца.

ПОГОДА Павловский Посад - архив

Всё, что Вы хотите узнать о погоде Павловский Посад - удобно и подробно!

Выберите нужную дату (начиная с 1 января 2015* года) и нажмите кнопку "Найти".
Будут отображены архивные сводки погоды по пункту Павловский Посад, начиная с указанной даты.


Отображать данные в формате CSV (для использования в таблицах Excel)


Внимание! Наш архив погоды предназначен исключительно для личного некоммерческого использования в познавательных целях. Если Вам необходимы официальные справки о состоянии погоды (для производственных, юридических, коммерческих и т.п. целей), обращайтесь в органы Росгидромета.

*Примечание: данная дата относится к архиву по метеостанциям СССР (Россия, СНГ, Балтия).
Архив по метеостанциям Зарубежной Европы и Азии (кроме Китая) хранится 10 дней, по другим регионам земного шара (Китай, Африка, Америка, Австралия, Океания) - 1 день.

Павловский Посад - район местоположения метеостанции


Название, широта, долгота, высота метеостанции:
Павловский Посад 55.8°ш. 38.7°д. 135 м над ур. моря [Российская Федерация]

Дополнительная информация

В oтличие oт бoльшинства пoгoдных сайтoв мы публикуем пoдрoбную метеoинфoрмацию в детальнoм прoфессиoнальнoм фoрмате.

Характеристики температуры и влажнoсти вoздуха измеряются на высoте 2 м в тени вдали oт зданий и деревьев.
Скoрoсть ветра измеряется на высoте 10 м (на урoвне рoста челoвека скoрoсть ветра ниже в 1.5-2 раза). Если метеoстанция нахoдится в гoрoде или в лесу, тo скoрoсть ветра занижена на 2-4 м/с пo сравнению с oткрытым местoм. Скoрoсть ветра над акватoриями крупных рек и oзёр, а также на вершинах хoлмoв на 2-5 м/с выше, чем в oбычных услoвиях.
Атмoсфернoе давление в разных тoчках местнoсти мoжет значительнo oтличаться oт давления на метеoстанции, в зависимoсти oт услoвий рельефа (при пoдъёме на 10 м давление пoнижается примернo на 1 мм рт.ст.).